Wetterdaten: Sonntag, 18.01.2015
Datum Zeit Temp. A. Feuchte A. Luftdruck Regen Wind Richtung Richtung Sonnenschein ET UV Solar Taupunkt Windchill Windben Empfang
18.01.2015 00:00 0,7 C 82 % 1017,4 hPa 0,3 l/m 0,0 km/h (0 Bft) W-SW 251 0 min 0,000 mm 0,0 UV-I 0 W/m -2,0 C 0,7 C 0,0 km/h (0 Bft) 0,00 %
18.01.2015 00:15 0,7 C 82 % 1017,4 hPa 0,0 l/m 0,0 km/h (0 Bft) SW 225 0 min 0,000 mm 0,0 UV-I 0 W/m -2,0 C 0,7 C 0,0 km/h (0 Bft) 0,00 %
18.01.2015 00:30 0,6 C 82 % 1017,3 hPa 0,0 l/m 0,0 km/h (0 Bft) SW 215 0 min 0,000 mm 0,0 UV-I 0 W/m -2,1 C 0,6 C 0,0 km/h (0 Bft) 0,00 %
18.01.2015 00:45 0,5 C 82 % 1017,5 hPa 0,0 l/m 0,0 km/h (0 Bft) SW 214 0 min 0,000 mm 0,0 UV-I 0 W/m -2,2 C 0,5 C 0,0 km/h (0 Bft) 0,00 %
18.01.2015 01:00 0,6 C 82 % 1017,5 hPa 0,3 l/m 0,0 km/h (0 Bft) S-SW 208 0 min 0,000 mm 0,0 UV-I 0 W/m -2,1 C 0,6 C 0,0 km/h (0 Bft) 0,00 %
18.01.2015 01:15 0,6 C 82 % 1017,4 hPa 0,0 l/m 0,0 km/h (0 Bft) SW 216 0 min 0,000 mm 0,0 UV-I 0 W/m -2,1 C 0,6 C 0,0 km/h (0 Bft) 0,00 %
18.01.2015 01:30 0,6 C 82 % 1017,4 hPa 0,0 l/m 0,0 km/h (0 Bft) S-SW 203 0 min 0,000 mm 0,0 UV-I 0 W/m -2,1 C 0,6 C 0,0 km/h (0 Bft) 0,00 %
18.01.2015 01:45 0,8 C 83 % 1017,3 hPa 0,0 l/m 0,0 km/h (0 Bft) S-SW 211 0 min 0,000 mm 0,0 UV-I 0 W/m -1,8 C 0,8 C 0,0 km/h (0 Bft) 0,00 %
18.01.2015 02:00 0,8 C 83 % 1017,5 hPa 0,0 l/m 0,0 km/h (0 Bft) S-SW 207 0 min 0,000 mm 0,0 UV-I 0 W/m -1,8 C 0,8 C 0,0 km/h (0 Bft) 0,00 %
18.01.2015 02:15 0,8 C 83 % 1017,7 hPa 0,0 l/m 0,0 km/h (0 Bft) S-SW 212 0 min 0,000 mm 0,0 UV-I 0 W/m -1,8 C 0,8 C 0,0 km/h (0 Bft) 0,00 %
18.01.2015 02:30 0,9 C 83 % 1017,6 hPa 0,0 l/m 0,0 km/h (0 Bft) SW 227 0 min 0,000 mm 0,0 UV-I 0 W/m -1,7 C 0,9 C 0,0 km/h (0 Bft) 0,00 %
18.01.2015 02:45 0,9 C 83 % 1017,6 hPa 0,0 l/m 0,0 km/h (0 Bft) SW 220 0 min 0,000 mm 0,0 UV-I 0 W/m -1,7 C 0,9 C 0,0 km/h (0 Bft) 0,00 %
18.01.2015 03:00 0,9 C 83 % 1017,6 hPa 0,0 l/m 0,0 km/h (0 Bft) W-SW 251 0 min 0,000 mm 0,0 UV-I 0 W/m -1,7 C 0,9 C 0,0 km/h (0 Bft) 0,00 %
18.01.2015 03:15 1,0 C 83 % 1017,6 hPa 0,0 l/m 0,0 km/h (0 Bft) SW 215 0 min 0,000 mm 0,0 UV-I 0 W/m -1,6 C 1,0 C 0,0 km/h (0 Bft) 0,00 %
18.01.2015 03:30 0,9 C 83 % 1017,7 hPa 0,0 l/m 0,0 km/h (0 Bft) S-SW 210 0 min 0,000 mm 0,0 UV-I 0 W/m -1,7 C 0,9 C 0,0 km/h (0 Bft) 0,00 %
18.01.2015 03:45 0,9 C 83 % 1017,4 hPa 0,0 l/m 0,0 km/h (0 Bft) W-SW 238 0 min 0,000 mm 0,0 UV-I 0 W/m -1,7 C 0,9 C 0,0 km/h (0 Bft) 0,00 %
18.01.2015 04:00 0,9 C 83 % 1017,5 hPa 0,0 l/m 0,0 km/h (0 Bft) S-SW 213 0 min 0,000 mm 0,0 UV-I 0 W/m -1,7 C 0,9 C 0,0 km/h (0 Bft) 0,00 %
18.01.2015 04:15 0,9 C 83 % 1017,2 hPa 0,0 l/m 0,0 km/h (0 Bft) SW 219 0 min 0,000 mm 0,0 UV-I 0 W/m -1,7 C 0,9 C 0,0 km/h (0 Bft) 0,00 %
18.01.2015 04:30 0,9 C 83 % 1017,3 hPa 0,0 l/m 0,0 km/h (0 Bft) S-SW 212 0 min 0,000 mm 0,0 UV-I 0 W/m -1,7 C 0,9 C 0,0 km/h (0 Bft) 0,00 %
18.01.2015 04:45 0,9 C 83 % 1017,5 hPa 0,0 l/m 0,0 km/h (0 Bft) S-SW 208 0 min 0,000 mm 0,0 UV-I 0 W/m -1,7 C 0,9 C 0,0 km/h (0 Bft) 0,00 %
18.01.2015 05:00 0,9 C 83 % 1017,5 hPa 0,0 l/m 0,0 km/h (0 Bft) S-SW 199 0 min 0,000 mm 0,0 UV-I 0 W/m -1,7 C 0,9 C 0,0 km/h (0 Bft) 0,00 %
18.01.2015 05:15 0,9 C 83 % 1017,3 hPa 0,0 l/m 0,0 km/h (0 Bft) SW 227 0 min 0,000 mm 0,0 UV-I 0 W/m -1,7 C 0,9 C 0,0 km/h (0 Bft) 0,00 %
18.01.2015 05:30 0,9 C 83 % 1017,2 hPa 0,0 l/m 0,0 km/h (0 Bft) S-SW 210 0 min 0,000 mm 0,0 UV-I 0 W/m -1,7 C 0,9 C 0,0 km/h (0 Bft) 0,00 %
18.01.2015 05:45 0,9 C 83 % 1017,4 hPa 0,0 l/m 0,0 km/h (0 Bft) SW 224 0 min 0,000 mm 0,0 UV-I 0 W/m -1,7 C 0,9 C 0,0 km/h (0 Bft) 0,00 %
18.01.2015 06:00 0,9 C 83 % 1017,5 hPa 0,0 l/m 0,0 km/h (0 Bft) SW 218 0 min 0,000 mm 0,0 UV-I 0 W/m -1,7 C 0,9 C 0,0 km/h (0 Bft) 0,00 %
18.01.2015 06:15 0,9 C 83 % 1017,4 hPa 0,0 l/m 0,0 km/h (0 Bft) SW 216 0 min 0,000 mm 0,0 UV-I 0 W/m -1,7 C 0,9 C 0,0 km/h (0 Bft) 0,00 %
18.01.2015 06:30 0,9 C 83 % 1017,4 hPa 0,0 l/m 0,0 km/h (0 Bft) S-SW 209 0 min 0,000 mm 0,0 UV-I 0 W/m -1,7 C 0,9 C 0,0 km/h (0 Bft) 0,00 %
18.01.2015 06:45 0,9 C 83 % 1017,5 hPa 0,0 l/m 0,0 km/h (0 Bft) SW 218 0 min 0,000 mm 0,0 UV-I 0 W/m -1,7 C 0,9 C 0,0 km/h (0 Bft) 0,00 %
18.01.2015 07:00 0,9 C 83 % 1017,5 hPa 0,0 l/m 0,0 km/h (0 Bft) S-SW 210 0 min 0,000 mm 0,0 UV-I 0 W/m -1,7 C 0,9 C 0,0 km/h (0 Bft) 0,00 %
18.01.2015 07:15 0,9 C 83 % 1017,7 hPa 0,0 l/m 0,0 km/h (0 Bft) S-SW 207 0 min 0,000 mm 0,0 UV-I 0 W/m -1,7 C 0,9 C 0,0 km/h (0 Bft) 0,00 %
18.01.2015 07:30 0,9 C 83 % 1017,5 hPa 0,0 l/m 0,0 km/h (0 Bft) SW 218 0 min 0,000 mm 0,0 UV-I 0 W/m -1,7 C 0,9 C 0,0 km/h (0 Bft) 0,00 %
18.01.2015 07:45 0,9 C 83 % 1017,7 hPa 0,0 l/m 0,0 km/h (0 Bft) SW 221 0 min 0,000 mm 0,0 UV-I 0 W/m -1,7 C 0,9 C 0,0 km/h (0 Bft) 0,00 %
18.01.2015 08:00 1,0 C 83 % 1018,0 hPa 0,0 l/m 0,0 km/h (0 Bft) S-SW 209 0 min 0,000 mm 0,0 UV-I 0 W/m -1,6 C 1,0 C 0,0 km/h (0 Bft) 0,00 %
18.01.2015 08:15 1,0 C 83 % 1018,1 hPa 0,0 l/m 0,0 km/h (0 Bft) SW 217 0 min 0,000 mm 0,0 UV-I 0 W/m -1,6 C 1,0 C 0,0 km/h (0 Bft) 0,00 %
18.01.2015 08:30 1,1 C 83 % 1018,2 hPa 0,0 l/m 0,0 km/h (0 Bft) S-SW 213 0 min 0,000 mm 0,0 UV-I 5 W/m -1,5 C 1,1 C 0,0 km/h (0 Bft) 0,00 %
18.01.2015 08:45 1,2 C 83 % 1018,1 hPa 0,0 l/m 0,0 km/h (0 Bft) S 186 0 min 0,000 mm 0,0 UV-I 6 W/m -1,4 C 1,2 C 0,0 km/h (0 Bft) 0,00 %
18.01.2015 09:00 1,3 C 83 % 1017,9 hPa 0,0 l/m 0,0 km/h (0 Bft) S-SW 195 0 min 0,000 mm 1,0 UV-I 17 W/m -1,3 C 1,3 C 0,0 km/h (0 Bft) 0,00 %
18.01.2015 09:15 1,6 C 82 % 1017,8 hPa 0,0 l/m 0,0 km/h (0 Bft) S 190 0 min 0,000 mm 1,0 UV-I 48 W/m -1,1 C 1,6 C 0,0 km/h (0 Bft) 0,00 %
18.01.2015 09:30 1,7 C 82 % 1017,8 hPa 0,0 l/m 0,0 km/h (0 Bft) S-SW 201 0 min 0,000 mm 1,0 UV-I 47 W/m -1,0 C 1,7 C 0,0 km/h (0 Bft) 0,00 %
18.01.2015 09:45 1,8 C 81 % 1017,6 hPa 0,0 l/m 0,0 km/h (0 Bft) S-SW 208 0 min 0,000 mm 1,0 UV-I 76 W/m -1,1 C 1,8 C 0,0 km/h (0 Bft) 0,00 %
18.01.2015 10:00 2,1 C 80 % 1017,7 hPa 0,0 l/m 0,0 km/h (0 Bft) S-SW 195 0 min 0,000 mm 1,0 UV-I 78 W/m -1,0 C 2,1 C 0,0 km/h (0 Bft) 0,00 %
18.01.2015 10:15 2,0 C 79 % 1017,8 hPa 0,0 l/m 0,0 km/h (0 Bft) SW 215 0 min 0,000 mm 1,0 UV-I 60 W/m -1,2 C 2,0 C 0,0 km/h (0 Bft) 0,00 %
18.01.2015 10:30 1,7 C 80 % 1017,8 hPa 0,0 l/m 0,0 km/h (0 Bft) O-SO 110 0 min 0,000 mm 1,0 UV-I 55 W/m -1,4 C 1,7 C 0,0 km/h (0 Bft) 0,00 %
18.01.2015 10:45 1,7 C 80 % 1017,7 hPa 0,0 l/m 0,0 km/h (0 Bft) SW 222 0 min 0,000 mm 1,0 UV-I 46 W/m -1,4 C 1,7 C 0,0 km/h (0 Bft) 0,00 %
18.01.2015 11:00 1,8 C 80 % 1017,7 hPa 0,0 l/m 0,0 km/h (0 Bft) S-SO 147 0 min 0,000 mm 1,0 UV-I 75 W/m -1,3 C 1,8 C 0,0 km/h (0 Bft) 0,00 %
18.01.2015 11:15 1,8 C 80 % 1017,4 hPa 0,0 l/m 0,0 km/h (0 Bft) W-SW 256 0 min 0,000 mm 1,0 UV-I 55 W/m -1,3 C 1,8 C 0,0 km/h (0 Bft) 0,00 %
18.01.2015 11:30 1,8 C 80 % 1017,2 hPa 0,0 l/m 0,0 km/h (0 Bft) W-SW 255 0 min 0,000 mm 1,0 UV-I 79 W/m -1,3 C 1,8 C 0,0 km/h (0 Bft) 0,00 %
18.01.2015 11:45 2,4 C 83 % 1017,1 hPa 0,0 l/m 0,0 km/h (0 Bft) S-SW 203 0 min 0,000 mm 2,0 UV-I 122 W/m -0,2 C 2,4 C 0,0 km/h (0 Bft) 0,00 %
18.01.2015 12:00 2,5 C 82 % 1016,6 hPa 0,0 l/m 0,0 km/h (0 Bft) O-NO 67 0 min 0,000 mm 2,0 UV-I 118 W/m -0,3 C 2,5 C 0,0 km/h (0 Bft) 0,00 %
18.01.2015 12:15 2,8 C 80 % 1016,5 hPa 0,0 l/m 0,0 km/h (0 Bft) SO 140 0 min 0,000 mm 1,0 UV-I 142 W/m -0,3 C 2,8 C 0,0 km/h (0 Bft) 0,00 %
18.01.2015 12:30 2,8 C 77 % 1016,4 hPa 0,0 l/m 0,0 km/h (0 Bft) S 174 0 min 0,000 mm 1,0 UV-I 99 W/m -0,8 C 2,8 C 0,0 km/h (0 Bft) 0,00 %
18.01.2015 12:45 2,6 C 77 % 1016,2 hPa 0,0 l/m 0,0 km/h (0 Bft) W-SW 253 0 min 0,000 mm 1,0 UV-I 65 W/m -1,0 C 2,6 C 0,0 km/h (0 Bft) 0,00 %
18.01.2015 13:00 2,6 C 80 % 1016,0 hPa 0,0 l/m 0,0 km/h (0 Bft) SO 130 0 min 0,000 mm 0,0 UV-I 59 W/m -0,5 C 2,6 C 0,0 km/h (0 Bft) 0,00 %
18.01.2015 13:15 2,2 C 78 % 1015,9 hPa 0,0 l/m 0,4 km/h (0 Bft) W-SW 256 0 min 0,000 mm 1,0 UV-I 34 W/m -1,2 C 2,2 C 4,0 km/h (1 Bft) 0,00 %
18.01.2015 13:30 2,0 C 79 % 1015,8 hPa 0,0 l/m 0,0 km/h (0 Bft) W-SW 255 0 min 0,000 mm 1,0 UV-I 42 W/m -1,2 C 2,0 C 0,0 km/h (0 Bft) 0,00 %
18.01.2015 13:45 1,9 C 78 % 1015,8 hPa 0,0 l/m 0,4 km/h (0 Bft) W-NW 292 0 min 0,000 mm 1,0 UV-I 45 W/m -1,5 C 1,9 C 4,0 km/h (1 Bft) 0,00 %
18.01.2015 14:00 1,9 C 78 % 1015,7 hPa 0,0 l/m 0,0 km/h (0 Bft) S 190 0 min 0,000 mm 1,0 UV-I 46 W/m -1,5 C 1,9 C 0,0 km/h (0 Bft) 0,00 %
18.01.2015 14:15 2,0 C 78 % 1015,7 hPa 0,0 l/m 0,0 km/h (0 Bft) N 351 0 min 0,000 mm 0,0 UV-I 35 W/m -1,4 C 2,0 C 0,0 km/h (0 Bft) 0,00 %
18.01.2015 14:30 1,9 C 78 % 1015,5 hPa 0,0 l/m 0,0 km/h (0 Bft) W-SW 256 0 min 0,000 mm 0,0 UV-I 27 W/m -1,5 C 1,9 C 0,0 km/h (0 Bft) 0,00 %
18.01.2015 14:45 1,8 C 78 % 1015,6 hPa 0,0 l/m 0,0 km/h (0 Bft) W-SW 242 0 min 0,000 mm 0,0 UV-I 23 W/m -1,6 C 1,8 C 0,0 km/h (0 Bft) 0,00 %
18.01.2015 15:00 1,8 C 79 % 1015,6 hPa 0,0 l/m 0,0 km/h (0 Bft) W-SW 250 0 min 0,000 mm 0,0 UV-I 18 W/m -1,4 C 1,8 C 0,0 km/h (0 Bft) 0,00 %
18.01.2015 15:15 1,7 C 79 % 1015,3 hPa 0,0 l/m 0,0 km/h (0 Bft) W-SW 256 0 min 0,000 mm 0,0 UV-I 17 W/m -1,5 C 1,7 C 0,0 km/h (0 Bft) 0,00 %
18.01.2015 15:30 1,8 C 79 % 1015,5 hPa 0,0 l/m 0,0 km/h (0 Bft) SW 222 0 min 0,000 mm 0,0 UV-I 17 W/m -1,4 C 1,8 C 0,0 km/h (0 Bft) 0,00 %
18.01.2015 15:45 1,7 C 79 % 1015,2 hPa 0,0 l/m 0,0 km/h (0 Bft) S-SW 213 0 min 0,000 mm 0,0 UV-I 9 W/m -1,5 C 1,7 C 0,0 km/h (0 Bft) 0,00 %
18.01.2015 16:00 1,6 C 79 % 1015,3 hPa 0,0 l/m 0,0 km/h (0 Bft) N 354 0 min 0,000 mm 0,0 UV-I 2 W/m -1,6 C 1,6 C 0,0 km/h (0 Bft) 0,00 %
18.01.2015 16:15 1,6 C 80 % 1015,2 hPa 0,0 l/m 0,4 km/h (0 Bft) N 355 0 min 0,000 mm 0,0 UV-I 0 W/m -1,5 C 1,6 C 4,0 km/h (1 Bft) 0,00 %
18.01.2015 16:30 1,6 C 80 % 1015,1 hPa 0,0 l/m 0,0 km/h (0 Bft) SO 130 0 min 0,000 mm 0,0 UV-I 0 W/m -1,5 C 1,6 C 0,0 km/h (0 Bft) 0,00 %
18.01.2015 16:45 1,6 C 79 % 1015,0 hPa 0,0 l/m 0,0 km/h (0 Bft) SO 138 0 min 0,000 mm 0,0 UV-I 0 W/m -1,6 C 1,6 C 0,0 km/h (0 Bft) 0,00 %
18.01.2015 17:00 1,5 C 79 % 1014,9 hPa 0,0 l/m 0,0 km/h (0 Bft) O-SO 104 0 min 0,000 mm 0,0 UV-I 0 W/m -1,7 C 1,5 C 0,0 km/h (0 Bft) 0,00 %
18.01.2015 17:15 1,5 C 78 % 1015,0 hPa 0,0 l/m 0,0 km/h (0 Bft) O-SO 120 0 min 0,000 mm 0,0 UV-I 0 W/m -1,9 C 1,5 C 0,0 km/h (0 Bft) 0,00 %
18.01.2015 17:30 1,5 C 78 % 1015,1 hPa 0,0 l/m 0,4 km/h (0 Bft) SO 124 0 min 0,000 mm 0,0 UV-I 0 W/m -1,9 C 1,5 C 4,0 km/h (1 Bft) 0,00 %
18.01.2015 17:45 1,4 C 79 % 1014,9 hPa 0,0 l/m 0,0 km/h (0 Bft) S-SW 198 0 min 0,000 mm 0,0 UV-I 0 W/m -1,8 C 1,4 C 0,0 km/h (0 Bft) 0,00 %
18.01.2015 18:00 1,4 C 79 % 1015,0 hPa 0,0 l/m 0,0 km/h (0 Bft) S 174 0 min 0,000 mm 0,0 UV-I 0 W/m -1,8 C 1,4 C 0,0 km/h (0 Bft) 0,00 %
18.01.2015 18:15 1,3 C 80 % 1015,2 hPa 0,0 l/m 0,0 km/h (0 Bft) S-SW 200 0 min 0,000 mm 0,0 UV-I 0 W/m -1,8 C 1,3 C 0,0 km/h (0 Bft) 0,00 %
18.01.2015 18:30 1,3 C 79 % 1015,1 hPa 0,0 l/m 0,0 km/h (0 Bft) W-SW 254 0 min 0,000 mm 0,0 UV-I 0 W/m -1,9 C 1,3 C 0,0 km/h (0 Bft) 0,00 %
18.01.2015 18:45 1,3 C 78 % 1015,2 hPa 0,0 l/m 0,0 km/h (0 Bft) S-SW 195 0 min 0,000 mm 0,0 UV-I 0 W/m -2,1 C 1,3 C 0,0 km/h (0 Bft) 0,00 %
18.01.2015 19:00 1,4 C 76 % 1015,0 hPa 0,0 l/m 0,0 km/h (0 Bft) S 190 0 min 0,000 mm 0,0 UV-I 0 W/m -2,4 C 1,4 C 0,0 km/h (0 Bft) 0,00 %
18.01.2015 19:15 1,4 C 79 % 1015,0 hPa 0,0 l/m 0,0 km/h (0 Bft) S-SW 195 0 min 0,000 mm 0,0 UV-I 0 W/m -1,8 C 1,4 C 0,0 km/h (0 Bft) 0,00 %
18.01.2015 19:30 1,4 C 79 % 1015,1 hPa 0,0 l/m 0,0 km/h (0 Bft) S-SW 197 0 min 0,000 mm 0,0 UV-I 0 W/m -1,8 C 1,4 C 0,0 km/h (0 Bft) 0,00 %
18.01.2015 19:45 1,3 C 79 % 1014,9 hPa 0,0 l/m 0,0 km/h (0 Bft) O 93 0 min 0,000 mm 0,0 UV-I 0 W/m -1,9 C 1,3 C 0,0 km/h (0 Bft) 0,00 %
18.01.2015 20:00 1,3 C 79 % 1015,1 hPa 0,0 l/m 0,0 km/h (0 Bft) S 173 0 min 0,000 mm 0,0 UV-I 0 W/m -1,9 C 1,3 C 0,0 km/h (0 Bft) 0,00 %
18.01.2015 20:15 1,2 C 80 % 1015,0 hPa 0,0 l/m 0,0 km/h (0 Bft) W-SW 251 0 min 0,000 mm 0,0 UV-I 0 W/m -1,9 C 1,2 C 0,0 km/h (0 Bft) 0,00 %
18.01.2015 20:30 1,1 C 80 % 1015,0 hPa 0,0 l/m 0,0 km/h (0 Bft) W-SW 255 0 min 0,000 mm 0,0 UV-I 0 W/m -2,0 C 1,1 C 0,0 km/h (0 Bft) 0,00 %
18.01.2015 20:45 1,1 C 80 % 1014,9 hPa 0,0 l/m 0,0 km/h (0 Bft) O-SO 117 0 min 0,000 mm 0,0 UV-I 0 W/m -2,0 C 1,1 C 0,0 km/h (0 Bft) 0,00 %
18.01.2015 21:00 1,2 C 80 % 1014,9 hPa 0,0 l/m 0,0 km/h (0 Bft) S 171 0 min 0,000 mm 0,0 UV-I 0 W/m -1,9 C 1,2 C 0,0 km/h (0 Bft) 0,00 %
18.01.2015 21:15 1,2 C 80 % 1014,7 hPa 0,0 l/m 0,0 km/h (0 Bft) S 180 0 min 0,000 mm 0,0 UV-I 0 W/m -1,9 C 1,2 C 0,0 km/h (0 Bft) 0,00 %
18.01.2015 21:30 1,3 C 79 % 1014,7 hPa 0,0 l/m 4,0 km/h (1 Bft) O-SO 109 0 min 0,000 mm 0,0 UV-I 0 W/m -1,9 C 1,3 C 7,9 km/h (2 Bft) 0,00 %
18.01.2015 21:45 1,5 C 79 % 1014,5 hPa 0,0 l/m 0,0 km/h (0 Bft) SO 144 0 min 0,000 mm 0,0 UV-I 0 W/m -1,7 C 1,5 C 0,0 km/h (0 Bft) 0,00 %
18.01.2015 22:00 1,5 C 79 % 1014,6 hPa 0,0 l/m 2,2 km/h (1 Bft) O-SO 102 0 min 0,000 mm 0,0 UV-I 0 W/m -1,7 C 1,5 C 4,0 km/h (1 Bft) 0,00 %
18.01.2015 22:15 1,5 C 79 % 1014,4 hPa 0,0 l/m 0,0 km/h (0 Bft) SW 218 0 min 0,000 mm 0,0 UV-I 0 W/m -1,7 C 1,5 C 0,0 km/h (0 Bft) 0,00 %
18.01.2015 22:30 1,4 C 80 % 1014,4 hPa 0,0 l/m 0,0 km/h (0 Bft) S 184 0 min 0,000 mm 0,0 UV-I 0 W/m -1,7 C 1,4 C 0,0 km/h (0 Bft) 0,00 %
18.01.2015 22:45 1,3 C 80 % 1014,3 hPa 0,0 l/m 0,0 km/h (0 Bft) O 90 0 min 0,000 mm 0,0 UV-I 0 W/m -1,8 C 1,3 C 0,0 km/h (0 Bft) 0,00 %
18.01.2015 23:00 1,3 C 81 % 1014,0 hPa 0,0 l/m 0,0 km/h (0 Bft) SW 226 0 min 0,000 mm 0,0 UV-I 0 W/m -1,6 C 1,3 C 0,0 km/h (0 Bft) 0,00 %
18.01.2015 23:15 1,3 C 81 % 1013,9 hPa 0,0 l/m 0,0 km/h (0 Bft) S 175 0 min 0,000 mm 0,0 UV-I 0 W/m -1,6 C 1,3 C 0,0 km/h (0 Bft) 0,00 %
18.01.2015 23:30 1,3 C 81 % 1014,1 hPa 0,0 l/m 0,0 km/h (0 Bft) S 176 0 min 0,000 mm 0,0 UV-I 0 W/m -1,6 C 1,3 C 0,0 km/h (0 Bft) 0,00 %
18.01.2015 23:45 1,3 C 81 % 1014,0 hPa 0,0 l/m 0,0 km/h (0 Bft) S 187 0 min 0,000 mm 0,0 UV-I 0 W/m -1,6 C 1,3 C 0,0 km/h (0 Bft) 0,00 %
_ Min-Zeit 00:45 19:00 23:15 - 00:00 - - - - - - 19:00 00:45 00:00 00:00
Minimum _ 0,5 C 76 % 1013,9 hPa - 0,0 km/h (0 Bft) - - - - - - -2,4 C 0,5 C 0,0 km/h (0 Bft) 0,00 %
_ Max-Zeit 12:15 01:45 08:30 00:00 21:30 - - 00:00 00:00 11:45 12:15 11:45 12:15 21:30 00:00
Maximum _ 2,8 C 83 % 1018,2 hPa 0,3 l/m 4,0 km/h
O-SO (1 Bft)
- - 0 min 0,000 mm 2,0 UV-I 142 W/m -0,2 C 2,8 C 7,9 km/h
O-SO (2 Bft)
0,00 %
Durchschnitt _ 1,4 C 81 % 1016,3 hPa #0,6 l/m 0,1 km/h (0 Bft) O-SO - #0 min. #0,000 mm 1,1 UV-I 51 W/m -1,6 C 1,4 C 0,3 km/h (0 Bft) 0,00 %